Home > Weather > Düren > Past weeks

Flag for Germany Weather for the Past 2 Weeks in Düren, North Rhine-Westphalia, Germany

Now
37 °F

Passing clouds.


Feels Like: 32 °F
Forecast: 39 / 49 °F
Wind: 7 mph from South

Location: Noervenich

Current Time: Apr 29, 2016 at 3:03:35 AM

Latest Report: Apr 29, 2016 at 1:20 AM


Visibility: N/A

Pressure: 29.98 "Hg

Humidity: 81%

Dew Point: 32 °F

Location of DürenLocation

Historic Weather in Düren — Graph

°F

Düren Temperature Yesterday

Maximum temperature yesterday: 50 °F (at 4:20 PM)
Minimum temperature yesterday: 36 °F (at 4:20 AM)
Average temperature yesterday: 42 °F

High & Low Weather Summary for the Past Weeks

 TemperatureHumidityPressure
High68 °F (Apr 21, 4:20 PM)94% (Apr 15, 4:20 AM)30.48 "Hg (Apr 15, 4:20 AM)
Low32 °F (Apr 18, 6:20 AM)26% (Apr 21, 4:20 PM)29.53 "Hg (Apr 16, 2:20 AM)
Average46 °F69%29.93 "Hg
* Reported Apr 14 1:20 AM — Apr 29 1:20 AM, Düren, Weather by CustomWeather, © 2016

Note: Actual official high and low records may vary slightly from our data, if they occured in-between our weather recording intervals... More about our weather records

Advertising

Düren Weather History for the Previous 24 Hours

Scroll right to see more
 ConditionsComfort  
Time TempWeatherWind HumidityBarometerVisibility
1:20 AM
Fri, Apr 29
37 °FPassing clouds.7 mph81%29.98 "HgN/A
12:20 AM37 °FPassing clouds.6 mph87%29.98 "HgN/A
11:20 PM
Thu, Apr 28
39 °FPassing clouds.3 mph87%29.98 "HgN/A
10:20 PM39 °FPassing clouds.2 mph87%30.01 "HgN/A
9:20 PM43 °FScattered clouds.2 mph76%30.01 "HgN/A
8:20 PM45 °FPartly sunny.5 mph71%29.98 "HgN/A
7:20 PM48 °FPartly sunny.3 mph62%29.98 "HgN/A
6:20 PM46 °FPartly sunny.5 mph71%29.98 "HgN/A
5:20 PM48 °FScattered clouds.5 mph58%29.95 "HgN/A
4:20 PM50 °FScattered clouds.5 mph47%29.95 "HgN/A
3:20 PM46 °FPartly sunny.9 mph62%29.98 "HgN/A
2:20 PM48 °FScattered clouds.6 mph46%29.98 "HgN/A
1:20 PM43 °FSprinkles. Partly sunny.8 mph66%29.98 "HgN/A
12:20 PM46 °FScattered clouds.1 mph57%29.98 "HgN/A
11:20 AM45 °FScattered clouds.6 mph57%29.98 "HgN/A
10:20 AM45 °FScattered clouds.6 mph66%29.98 "HgN/A
9:20 AM41 °FPassing clouds.5 mph81%29.98 "HgN/A
7:20 AM36 °FScattered clouds.5 mph87%29.95 "HgN/A
6:20 AM36 °FPassing clouds.7 mph87%29.92 "HgN/A
5:20 AM36 °FPassing clouds.8 mph87%29.92 "HgN/A
4:20 AM36 °FPassing clouds.7 mph93%29.92 "HgN/A
3:20 AM37 °FPartly cloudy.7 mph87%29.92 "HgN/A
Weather by CustomWeather, © 2016

See weather overviewHow to use our weather pages